Date,TemperatureHighF,TemperatureAvgF,TemperatureLowF,DewpointHighF,DewpointAvgF,DewpointLowF,HumidityHigh,HumidityAvg,HumidityLow,PressureMaxIn,PressureMinIn,WindSpeedMaxMPH,WindSpeedAvgMPH,GustSpeedMaxMPH,PrecipitationSumIn
2012-1-1,81.1,62.5,50.6,34.1,27.0,21.4,41,28,11,30.23,30.13,11,5,15,0.00
2012-1-2,79.1,62.7,51.7,27.8,23.2,20.7,30,23,12,30.28,30.16,14,6,17,0.00
2012-1-3,78.6,59.5,45.8,30.5,24.7,20.4,48,27,14,30.29,30.14,16,5,18,0.00
2012-1-4,73.3,59.6,45.1,31.9,26.7,21.7,48,29,18,30.29,30.19,13,4,15,0.00
2012-1-5,74.3,58.3,45.6,26.9,21.6,13.9,43,27,10,30.26,30.02,12,3,15,0.00
2012-1-6,72.2,53.5,40.0,24.1,21.3,12.1,48,31,10,30.07,29.95,10,3,13,0.00
2012-1-7,70.9,53.9,39.7,27.2,22.0,17.6,51,32,13,30.02,29.89,11,2,14,0.00
2012-1-8,55.8,46.1,36.0,29.0,24.9,20.5,61,44,30,30.15,29.92,12,3,15,0.00
2012-1-9,60.5,48.2,38.4,30.5,27.6,25.0,61,46,29,30.27,30.14,11,3,12,0.00
2012-1-10,67.3,50.3,35.2,29.7,26.0,21.4,66,42,18,30.24,30.06,10,2,13,0.00
2012-1-11,65.9,49.7,35.4,27.9,23.4,16.3,64,38,20,30.08,29.97,9,2,10,0.00
2012-1-12,60.1,51.4,42.9,22.5,17.7,4.9,39,27,16,30.06,29.98,12,5,16,0.00
2012-1-13,67.0,50.0,39.0,22.6,15.9,8.4,40,27,12,30.22,30.06,14,5,16,0.00
2012-1-14,70.8,54.6,43.5,27.1,12.6,2.5,33,20,7,30.22,30.11,13,4,17,0.00
2012-1-15,64.0,55.4,49.6,47.2,30.9,19.3,91,43,21,30.14,30.04,9,2,11,0.35
2012-1-16,58.5,51.9,47.1,48.3,46.3,43.1,93,82,63,30.12,29.99,10,2,11,0.18
2012-1-17,62.5,49.7,40.4,47.1,40.3,28.6,98,73,30,30.27,30.11,7,1,9,0.01
2012-1-18,67.0,52.4,39.6,40.5,35.7,30.1,84,56,26,30.31,30.16,7,2,9,0.00
2012-1-19,72.2,54.3,38.2,36.5,28.2,17.2,75,42,13,30.16,29.98,8,2,9,0.00
2012-1-20,68.7,52.6,37.2,29.1,23.6,6.6,61,37,9,30.08,29.98,8,2,10,0.00
2012-1-21,70.6,55.8,41.5,37.7,30.8,24.1,60,41,18,30.06,29.84,16,4,19,0.00
2012-1-22,61.8,49.5,37.3,37.6,27.2,21.4,66,44,21,30.13,29.96,7,1,12,0.00
2012-1-23,65.8,51.1,35.7,39.7,22.4,11.3,68,36,12,30.12,29.83,11,2,13,0.07
2012-1-24,56.6,48.8,41.0,38.9,35.7,30.6,77,61,46,30.16,29.85,11,3,15,0.00
2012-1-25,62.5,54.7,40.9,32.4,30.1,26.5,71,40,30,30.22,30.10,11,4,11,0.00
2012-1-26,74.7,55.2,40.2,36.4,29.6,23.3,63,40,17,30.18,30.00,8,2,9,0.00
2012-1-27,73.9,56.4,40.5,36.6,31.7,27.3,64,42,20,30.04,29.94,8,3,12,0.00
2012-1-28,71.8,58.3,48.1,33.5,26.9,16.5,39,30,23,30.19,30.03,12,4,14,0.00
2012-1-29,74.7,58.8,47.3,32.9,27.2,22.7,43,31,15,30.22,30.05,12,5,16,0.00
2012-1-30,72.5,57.4,44.3,29.0,24.0,17.4,47,30,14,30.06,29.93,11,3,15,0.00
2012-1-31,71.6,54.7,42.5,30.8,25.2,19.9,51,34,15,30.13,29.98,11,2,16,0.00
2012-2-1,71.9,54.4,39.2,26.2,22.6,14.0,55,32,11,30.16,29.97,14,2,16,0.00
2012-2-2,60.2,46.3,40.8,22.6,18.5,14.8,46,33,20,29.99,29.92,9,1,16,0.00
2012-2-3,63.0,46.9,31.9,26.1,22.9,18.2,62,41,22,30.07,29.97,9,2,11,0.00
2012-2-4,66.6,50.9,40.3,27.6,24.3,19.9,52,37,17,30.08,29.99,9,3,11,0.00
2012-2-5,70.3,50.4,37.9,29.0,25.1,22.6,58,40,17,30.09,29.96,9,3,14,0.00
2012-2-6,66.0,48.6,37.5,28.4,25.1,20.0,61,43,18,30.05,29.98,10,2,11,0.00
2012-2-7,74.2,57.6,43.2,36.6,27.0,21.1,44,32,20,30.04,29.90,12,4,13,0.00
2012-2-8,70.9,58.4,49.9,38.9,32.6,28.6,56,39,23,30.11,29.95,12,3,15,0.00
2012-2-9,71.9,56.6,44.7,35.7,31.6,28.4,59,41,21,30.13,30.03,11,4,14,0.00
2012-2-10,73.9,58.2,43.3,31.6,28.9,25.4,60,36,17,30.17,30.03,7,2,9,0.00
2012-2-11,76.2,59.2,41.0,29.7,24.6,19.5,54,30,12,30.05,29.80,10,4,22,0.00
2012-2-12,64.6,56.9,42.7,38.4,32.2,28.5,62,40,27,29.93,29.76,12,5,24,0.00
2012-2-13,63.0,52.6,37.0,35.8,32.2,29.3,77,48,30,30.00,29.85,15,3,17,0.00
2012-2-14,54.2,45.3,34.0,39.2,36.0,30.5,92,71,48,30.07,29.80,25,3,25,0.23
2012-2-15,61.3,46.2,32.4,36.5,31.3,23.8,92,61,26,30.15,29.95,11,2,18,0.00
2012-2-16,60.7,49.2,41.9,38.7,32.0,27.4,82,54,30,30.02,29.92,11,2,14,0.00
2012-2-17,56.9,47.2,40.5,41.2,39.2,36.2,90,75,51,30.14,29.97,9,2,13,0.02
2012-2-18,65.8,49.1,34.8,42.0,33.7,27.3,92,61,25,30.19,30.01,9,2,11,0.01
2012-2-19,63.8,51.6,38.1,38.1,31.3,25.0,70,48,23,30.02,29.83,14,3,19,0.00
2012-2-20,66.8,51.4,35.5,33.8,29.1,23.1,74,46,21,30.10,29.99,8,2,11,0.00
2012-2-21,73.1,55.6,42.2,30.4,24.8,16.3,54,34,12,30.12,30.03,10,3,12,0.00
2012-2-22,76.3,56.3,38.4,24.5,20.2,14.9,47,27,10,30.12,29.92,9,3,12,0.00
2012-2-23,75.7,58.1,41.2,27.6,20.6,10.0,40,26,8,29.92,29.78,11,2,15,0.00
2012-2-24,77.0,58.2,46.0,27.7,24.3,19.8,48,29,14,30.05,29.89,11,4,14,0.00
2012-2-25,75.8,58.7,43.6,30.8,24.1,18.5,49,29,12,30.06,29.89,11,3,17,0.00
2012-2-26,75.5,59.0,41.5,28.8,23.4,20.2,49,28,14,29.93,29.80,15,3,26,0.00
2012-2-27,73.4,60.5,47.3,41.6,32.5,24.1,62,37,18,29.90,29.69,27,9,32,0.00
2012-2-28,60.3,48.9,40.7,37.3,31.1,25.3,80,53,27,30.19,29.83,23,5,29,0.02
2012-2-29,68.3,51.2,37.7,30.2,23.8,14.6,63,39,13,30.22,30.08,11,2,13,0.00
2012-3-1,69.5,53.2,36.7,27.0,19.8,9.1,58,31,10,30.09,29.88,17,2,20,0.00
2012-3-2,61.0,49.7,38.7,30.6,15.4,-6.1,61,30,7,30.22,29.91,12,3,16,0.00
2012-3-3,67.8,51.9,38.6,10.5,2.7,-2.9,20,14,7,30.31,30.20,13,5,17,0.00
2012-3-4,78.9,61.9,45.1,21.4,12.8,1.6,25,16,5,30.22,29.99,12,5,16,0.00
2012-3-5,84.3,65.1,51.6,21.1,15.6,5.0,25,17,5,30.04,29.90,9,3,14,0.00
2012-3-6,80.6,65.5,48.4,23.3,13.0,1.9,29,15,5,29.92,29.60,24,6,27,0.00
2012-3-7,63.0,51.2,34.7,25.6,15.5,4.0,39,25,13,30.03,29.59,19,4,25,0.00
2012-3-8,64.2,47.5,29.0,22.8,16.1,6.6,51,30,16,30.30,30.03,13,3,20,0.00
2012-3-9,66.0,52.3,39.5,21.6,18.8,16.5,44,28,16,30.27,30.05,14,2,17,0.00
2012-3-10,65.2,51.2,39.4,28.2,23.9,20.0,56,36,20,30.07,29.99,10,2,12,0.00
2012-3-11,74.9,56.6,38.1,26.5,20.1,12.6,52,28,10,30.08,29.94,13,2,15,0.00
2012-3-12,80.6,60.3,40.1,18.8,4.7,-29.8,35,16,1,30.04,29.91,9,2,15,0.00
2012-3-13,81.6,61.9,44.0,13.3,0.6,-29.2,24,11,1,30.00,29.88,14,2,18,0.00
2012-3-14,81.5,62.1,41.5,13.0,2.8,-28.8,26,12,1,30.04,29.95,8,2,14,0.00
2012-3-15,84.1,64.5,44.6,20.1,7.3,-14.2,28,14,2,30.05,29.90,11,2,13,0.00
2012-3-16,84.3,64.6,43.9,18.3,9.7,-5.1,28,14,3,29.94,29.80,13,2,15,0.00
2012-3-17,78.2,65.7,50.9,31.8,19.2,10.4,33,18,8,29.83,29.62,24,8,30,0.00
2012-3-18,61.2,46.7,37.7,42.1,35.6,30.2,92,68,31,29.91,29.53,23,7,38,0.55
2012-3-19,50.8,41.8,33.4,37.2,31.0,24.6,85,67,37,30.05,29.86,17,3,32,0.05
2012-3-20,57.6,48.1,29.7,30.0,26.8,21.1,86,46,25,30.17,30.03,12,3,16,0.00
2012-3-21,71.7,54.7,38.1,34.3,27.8,22.1,70,39,19,30.15,29.93,19,5,19,0.00
2012-3-22,80.4,61.9,45.3,35.3,30.1,17.7,63,35,10,29.97,29.83,11,2,13,0.00
2012-3-23,81.7,65.6,47.5,38.9,31.4,22.2,62,32,12,29.98,29.86,13,2,17,0.00
2012-3-24,85.7,67.4,46.9,34.3,26.4,9.9,57,27,6,29.94,29.81,13,2,14,0.00
2012-3-25,81.0,66.5,50.5,35.8,25.3,12.0,47,25,8,29.86,29.77,17,4,22,0.00
2012-3-26,73.8,61.8,46.9,42.8,37.7,33.8,76,43,25,29.98,29.83,13,3,16,0.00
2012-3-27,81.9,63.8,46.3,36.6,28.9,7.2,62,33,6,30.00,29.86,15,3,16,0.00
2012-3-28,83.6,66.1,47.2,32.2,25.4,14.9,50,25,8,29.97,29.82,13,3,21,0.00
2012-3-29,82.7,65.7,49.0,30.5,21.0,-1.1,42,22,4,29.93,29.82,10,2,13,0.00
2012-3-30,85.5,67.9,50.2,29.7,24.4,15.5,41,22,8,29.92,29.82,9,2,12,0.00
2012-3-31,63.6,59.4,55.8,28.6,27.3,25.7,34,29,25,29.88,29.86,5,2,5,0.00
2012-4-1,72.8,61.9,47.5,36.7,26.1,14.7,34,26,13,29.80,29.67,16,3,22,0.00
2012-4-2,64.7,53.3,39.3,21.5,14.1,1.4,42,23,8,29.91,29.77,17,3,21,0.00
2012-4-3,74.1,57.2,38.6,20.0,13.9,9.3,33,20,10,30.00,29.87,11,2,17,0.00
2012-4-4,80.2,63.0,44.0,22.2,16.1,9.4,34,19,7,29.96,29.82,10,2,11,0.00
2012-4-5,85.6,67.8,49.1,23.9,15.3,5.8,31,16,5,29.84,29.71,17,3,22,0.00
2012-4-6,80.1,64.8,47.8,27.1,19.3,5.3,37,19,8,29.98,29.82,9,3,14,0.00
2012-4-7,88.0,69.4,50.7,16.2,11.1,-1.8,20,11,4,30.00,29.89,10,3,13,0.00
2012-4-8,91.9,72.4,50.7,21.7,16.1,8.4,22,13,7,30.01,29.86,12,2,19,0.00
2012-4-9,91.5,73.7,55.1,23.0,17.4,10.5,24,13,5,29.93,29.79,10,2,16,0.00
2012-4-10,90.2,72.4,54.0,33.3,20.5,2.8,33,16,4,29.85,29.71,12,3,21,0.00
2012-4-11,77.5,66.1,57.1,42.9,35.6,30.6,47,33,18,29.93,29.75,24,5,27,0.00
2012-4-12,69.8,58.9,50.3,41.1,33.2,22.9,63,41,20,30.03,29.91,11,2,15,0.00
2012-4-13,75.5,62.0,44.7,28.4,17.0,-2.9,40,21,6,29.95,29.66,18,5,25,0.00
2012-4-14,61.4,50.9,40.7,44.4,29.2,2.1,92,50,17,30.01,29.68,22,6,28,0.40
2012-4-15,66.5,52.6,36.6,36.7,32.4,29.0,84,50,26,30.15,29.99,11,2,12,0.00
2012-4-16,81.7,64.4,46.6,35.9,30.3,22.6,63,32,12,30.14,29.98,10,3,15,0.00
2012-4-17,90.5,71.3,50.5,33.7,23.7,7.6,48,22,5,30.00,29.83,12,3,13,0.00
2012-4-18,91.7,73.7,51.3,31.1,20.2,-0.3,42,18,3,29.91,29.78,14,2,20,0.00
2012-4-19,90.0,73.9,54.9,27.3,20.4,10.1,32,15,6,29.87,29.76,12,3,23,0.00
2012-4-20,95.4,77.0,58.0,33.1,29.7,25.1,34,19,9,29.90,29.77,12,3,17,0.00
2012-4-21,99.1,80.6,61.3,35.4,27.9,19.1,34,17,6,29.85,29.73,11,2,14,0.00
2012-4-22,102.6,82.7,59.4,33.6,22.6,4.3,34,14,3,29.84,29.71,11,2,12,0.00
2012-4-23,100.5,83.2,66.0,40.7,30.5,19.0,31,16,7,29.82,29.70,11,3,17,0.00
2012-4-24,94.9,79.0,62.7,43.0,33.9,21.6,41,22,9,29.85,29.72,16,3,16,0.00
2012-4-25,94.7,77.3,61.8,33.3,25.4,1.2,29,17,3,29.85,29.74,15,2,15,0.00
2012-4-26,76.0,70.6,57.1,48.8,31.9,22.3,52,25,15,29.89,29.74,24,5,29,0.00
2012-4-27,85.1,68.4,52.7,36.8,33.0,28.5,49,29,14,29.93,29.77,10,3,17,0.00
2012-4-28,88.4,72.1,53.3,39.3,33.0,28.0,48,27,12,29.80,29.63,10,2,15,0.00
2012-4-29,89.7,74.4,55.9,40.7,33.7,26.5,51,26,11,29.80,29.70,14,3,16,0.00
2012-4-30,91.9,76.2,56.4,42.3,34.3,26.3,49,24,10,29.87,29.72,10,2,14,0.00
2012-5-1,91.3,73.5,55.6,40.3,32.1,17.7,49,26,8,29.79,29.64,14,3,16,0.00
2012-5-2,89.3,75.2,60.7,41.0,27.9,15.8,43,21,7,29.80,29.69,18,4,21,0.00
2012-5-3,92.4,75.9,55.8,35.5,25.5,13.4,42,19,6,29.86,29.76,18,3,21,0.00
2012-5-4,92.7,76.1,56.6,30.0,22.3,15.2,30,16,6,29.90,29.80,14,3,17,0.00
2012-5-5,93.0,76.6,58.8,28.3,18.7,0.3,29,14,3,29.85,29.73,18,3,24,0.00
2012-5-6,90.6,75.1,53.8,31.1,19.3,7.7,37,15,6,29.82,29.71,17,4,22,0.00
2012-5-7,85.9,71.0,48.6,17.8,8.7,0.3,24,10,4,29.81,29.71,12,3,19,0.00
2012-5-8,88.0,72.7,52.2,35.9,5.1,-29.4,26,9,2,29.81,29.64,15,3,19,0.00
2012-5-9,82.6,68.3,54.8,47.3,40.2,27.1,70,39,15,29.86,29.69,20,4,31,0.03
2012-5-10,89.4,71.7,53.1,46.0,39.1,29.3,72,37,14,29.85,29.70,10,3,15,0.00
2012-5-11,94.0,77.5,56.9,38.9,27.8,10.9,43,20,5,29.84,29.71,13,3,19,0.00
2012-5-12,95.1,77.3,57.5,26.6,12.8,0.2,22,10,3,29.92,29.83,17,2,18,0.00
2012-5-13,99.6,81.1,59.3,24.2,15.4,5.0,20,10,3,29.90,29.76,10,2,14,0.00
2012-5-14,99.3,82.6,63.3,26.1,12.1,-6.7,18,9,2,29.83,29.71,13,4,15,0.00
2012-5-15,100.4,84.8,65.6,38.2,23.1,11.2,26,12,4,29.78,29.65,16,3,20,0.00
2012-5-16,101.6,84.8,66.5,34.3,20.2,6.5,21,10,4,29.73,29.61,14,3,19,0.00
2012-5-17,100.3,83.3,62.4,30.8,18.9,-3.6,21,11,2,29.75,29.60,15,4,22,0.00
2012-5-18,94.6,82.8,70.3,37.9,29.0,16.5,26,16,6,29.67,29.53,21,6,27,0.00
2012-5-19,95.1,78.3,58.5,33.7,22.8,7.0,35,16,4,29.77,29.66,11,2,13,0.00
2012-5-20,101.7,82.6,62.3,30.2,13.8,-17.2,22,10,1,29.82,29.72,11,2,14,0.00
2012-5-21,106.3,87.6,66.7,23.1,7.4,-18.2,15,6,1,29.81,29.68,11,3,15,0.00
2012-5-22,104.6,86.4,63.1,22.2,7.4,-18.1,17,7,1,29.77,29.61,15,3,28,0.00
2012-5-23,100.7,87.1,72.7,33.0,15.4,-3.8,18,8,2,29.64,29.43,24,7,32,0.00
2012-5-24,95.0,83.8,72.8,43.6,30.4,20.1,26,15,9,29.52,29.40,23,8,24,0.00
2012-5-25,92.9,81.9,72.3,40.3,31.9,21.9,29,17,9,29.56,29.48,24,10,28,0.00
2012-5-26,81.2,71.6,56.6,45.1,30.9,9.7,36,24,11,29.83,29.56,26,6,26,0.00
2012-5-27,85.7,69.5,48.3,16.3,4.9,-26.4,25,11,1,29.91,29.82,11,3,13,0.00
2012-5-28,93.5,76.2,55.3,17.4,6.3,-21.6,19,9,1,29.88,29.77,13,2,14,0.00
2012-5-29,98.8,79.7,56.0,15.3,3.0,-20.6,17,7,1,29.87,29.75,12,2,17,0.00
2012-5-30,98.3,79.6,58.0,22.5,8.9,-22.0,20,9,1,29.84,29.71,11,2,16,0.00
2012-5-31,103.1,83.5,63.0,26.0,11.0,-17.7,19,9,1,29.75,29.58,13,2,17,0.00
2012-6-1,107.5,89.4,68.3,23.2,10.8,-13.4,15,7,1,29.70,29.57,14,3,18,0.00
2012-6-2,102.3,86.3,67.6,28.9,19.6,8.9,19,10,4,29.72,29.61,16,3,20,0.00
2012-6-3,99.4,83.2,63.0,32.3,25.5,15.5,24,13,5,29.77,29.68,14,3,24,0.00
2012-6-4,99.6,84.0,64.5,36.0,27.2,15.5,26,14,5,29.80,29.64,14,4,18,0.00
2012-6-5,99.5,83.5,62.9,33.1,28.9,22.6,28,15,7,29.74,29.59,12,2,17,0.00
2012-6-6,101.6,84.6,62.1,33.2,22.0,-16.2,22,12,1,29.67,29.55,16,4,21,0.00
2012-6-7,102.1,84.1,60.2,30.4,13.0,-16.8,28,10,1,29.73,29.65,17,3,21,0.00
2012-6-8,103.9,85.5,63.2,28.6,16.8,-5.8,22,10,2,29.75,29.60,17,3,20,0.00
2012-6-9,102.3,85.7,66.4,27.7,15.2,-17.5,21,9,1,29.67,29.52,17,5,24,0.00
2012-6-10,99.2,85.3,69.9,35.1,26.1,20.9,22,12,7,29.73,29.60,16,3,17,0.00
2012-6-11,102.9,85.3,67.1,38.0,28.4,16.1,28,15,6,29.80,29.70,15,2,17,0.00
2012-6-12,104.6,86.8,65.7,29.7,21.5,6.7,22,11,3,29.81,29.65,14,2,16,0.00
2012-6-13,103.8,89.0,66.8,25.7,16.4,2.0,17,8,3,29.69,29.55,13,3,17,0.00
2012-6-14,101.3,85.7,66.3,49.5,27.9,11.2,29,14,4,29.69,29.57,15,4,20,0.00
2012-6-15,100.6,86.4,73.0,44.0,30.3,5.0,34,16,3,29.70,29.57,19,4,22,0.00
2012-6-16,103.6,80.6,68.6,62.6,45.8,31.3,73,33,11,29.83,29.64,24,4,24,0.13
2012-6-17,106.0,86.4,66.3,54.8,44.1,31.0,63,29,9,29.83,29.66,12,3,21,0.00
2012-6-18,103.3,90.8,72.0,45.8,33.5,19.4,35,16,6,29.69,29.55,13,4,18,0.00
2012-6-19,103.6,89.4,71.6,29.1,8.1,-20.7,19,7,1,29.61,29.50,14,4,18,0.00
2012-6-20,105.0,87.6,64.4,20.9,3.4,-17.1,16,6,1,29.68,29.57,11,2,15,0.00
2012-6-21,107.9,90.1,68.0,40.0,26.3,9.3,25,12,3,29.75,29.60,12,2,15,0.00
2012-6-22,107.7,91.1,72.4,44.3,40.0,36.2,29,18,10,29.67,29.50,10,2,15,0.00
2012-6-23,106.5,88.4,71.9,41.1,36.1,31.8,25,16,10,29.66,29.52,12,2,15,0.00
2012-6-24,102.6,88.3,75.9,58.0,51.3,33.3,42,29,18,29.76,29.66,15,2,23,0.00
2012-6-25,104.2,90.4,76.0,58.0,52.1,44.1,52,30,14,29.83,29.64,13,3,22,0.00
2012-6-26,107.8,90.8,77.9,57.8,54.4,48.7,45,31,15,29.68,29.54,20,2,23,0.00
2012-6-27,107.9,90.0,77.7,56.8,52.3,43.4,44,29,12,29.77,29.59,15,3,22,0.00
2012-6-28,104.1,91.6,76.5,55.7,53.1,49.3,45,29,18,29.83,29.72,12,3,22,0.00
2012-6-29,105.3,92.2,76.6,55.3,49.9,44.4,42,25,14,29.83,29.65,13,2,16,0.00
2012-6-30,103.9,90.6,78.6,58.8,48.1,36.3,50,26,11,29.74,29.58,10,2,15,0.00
2012-7-1,106.0,91.6,78.8,45.0,38.7,30.5,27,17,10,29.68,29.54,12,2,19,0.00
2012-7-2,103.9,90.4,79.8,55.8,49.3,33.4,40,26,15,29.69,29.56,14,4,18,0.00
2012-7-3,94.8,83.5,69.3,66.7,58.1,53.8,90,44,28,29.78,29.64,14,4,18,0.27
2012-7-4,86.3,72.1,68.2,67.7,66.3,62.9,94,83,50,29.85,29.74,12,2,14,0.83
2012-7-5,97.2,80.7,65.5,65.7,59.9,50.8,94,55,25,29.90,29.75,8,2,11,0.01
2012-7-6,97.2,84.8,71.2,63.0,55.2,46.7,75,40,20,29.86,29.72,12,2,16,0.00
2012-7-7,100.8,87.8,74.0,55.7,41.2,28.9,41,23,9,29.83,29.71,12,2,16,0.00
2012-7-8,103.0,88.6,77.9,59.9,56.0,51.8,53,34,19,29.83,29.74,11,4,14,0.00
2012-7-9,105.0,93.8,88.2,54.8,53.4,45.6,31,26,16,29.75,29.68,16,6,18,0.00
2012-7-10,104.7,91.8,80.9,60.8,54.8,49.3,44,30,17,29.76,29.58,16,3,21,0.00
2012-7-11,102.5,90.9,78.0,62.5,57.4,50.4,55,35,19,29.76,29.59,11,2,27,0.00
2012-7-12,103.5,87.3,75.5,66.8,61.8,51.8,68,46,19,29.76,29.59,14,2,18,0.00
2012-7-13,96.1,80.6,73.7,69.7,63.6,56.6,77,57,30,29.85,29.76,16,3,18,0.08
2012-7-14,92.5,77.1,66.6,69.1,67.0,57.7,92,73,43,29.95,29.80,20,1,24,1.00
2012-7-15,98.6,79.2,67.7,67.5,65.1,61.2,89,66,32,29.88,29.71,23,2,26,0.12
2012-7-16,96.3,81.5,68.8,69.7,62.0,52.6,86,55,30,29.83,29.72,15,3,18,0.02
2012-7-17,98.7,84.9,72.5,62.8,54.0,45.1,68,38,18,29.84,29.71,11,2,14,0.00
2012-7-18,103.4,86.0,68.8,54.7,46.0,37.4,53,28,12,29.83,29.71,12,2,13,0.00
2012-7-19,102.5,86.9,71.7,57.2,49.6,41.9,52,30,17,29.84,29.73,10,2,15,0.00
2012-7-20,105.4,86.9,74.5,68.4,58.7,52.8,77,42,19,29.86,29.71,12,2,20,0.03
2012-7-21,100.0,80.2,72.0,70.5,65.5,60.1,84,64,28,29.85,29.77,9,2,19,0.19
2012-7-22,96.4,76.4,71.1,70.1,67.2,62.4,92,75,35,29.90,29.81,9,1,23,0.67
2012-7-23,101.5,81.8,69.6,68.8,64.7,57.4,87,60,25,29.90,29.77,18,2,24,0.05
2012-7-24,92.4,79.5,72.1,70.6,65.4,62.3,81,63,37,29.86,29.77,11,3,19,0.23
2012-7-25,100.6,85.4,71.4,67.8,58.2,48.1,81,47,18,29.89,29.72,10,2,15,0.01
2012-7-26,99.5,85.7,72.8,66.1,56.3,50.4,70,40,20,29.82,29.70,6,2,15,0.00
2012-7-27,102.3,86.8,76.0,63.9,56.6,50.3,58,38,21,29.80,29.66,7,2,13,0.00
2012-7-28,98.4,78.3,70.0,71.0,65.5,60.3,89,67,31,29.88,29.74,13,2,24,0.08
2012-7-29,96.8,75.8,68.8,70.4,67.4,62.8,94,78,33,29.90,29.79,13,2,19,0.57
2012-7-30,95.7,82.5,69.8,70.8,63.4,54.9,93,58,26,29.91,29.78,12,2,16,0.01
2012-7-31,97.6,84.0,71.3,64.9,61.1,56.8,77,49,27,29.91,29.79,13,2,14,0.00
2012-8-1,100.6,85.1,71.5,64.1,57.3,43.4,72,44,15,29.92,29.78,9,1,12,0.00
2012-8-2,102.4,87.1,70.4,60.5,54.5,48.7,60,36,18,29.85,29.69,9,2,15,0.00
2012-8-3,104.2,88.3,70.0,58.1,50.5,42.9,58,30,14,29.77,29.62,11,2,17,0.00
2012-8-4,104.5,88.8,70.7,54.9,51.4,46.1,51,30,15,29.77,29.66,16,2,21,0.00
2012-8-5,104.1,86.6,70.3,68.4,58.3,53.5,82,42,21,29.89,29.72,29,3,35,0.48
2012-8-6,105.6,87.4,71.0,67.1,62.6,57.3,80,47,22,29.91,29.75,10,2,14,0.00
2012-8-7,105.2,90.3,72.9,65.6,59.9,54.0,70,39,20,29.84,29.67,9,2,13,0.00
2012-8-8,109.2,90.5,77.5,66.8,60.3,53.6,69,39,18,29.78,29.61,29,3,32,0.02
2012-8-9,105.5,90.1,73.6,67.1,59.4,44.7,75,41,14,29.81,29.64,16,3,18,0.00
2012-8-10,106.5,87.8,73.9,60.9,54.3,44.0,50,35,13,29.77,29.63,19,2,19,0.00
2012-8-11,107.8,90.0,80.0,63.2,56.3,48.5,49,34,18,29.69,29.59,15,2,22,0.00
2012-8-12,111.1,93.0,73.5,57.3,49.6,35.1,48,26,9,29.73,29.59,10,2,14,0.00
2012-8-13,112.2,92.9,77.1,56.6,51.3,36.9,44,27,8,29.71,29.56,11,3,17,0.00
2012-8-14,108.3,91.3,78.6,65.4,53.5,48.0,57,30,14,29.70,29.53,14,4,19,0.02
2012-8-15,98.9,83.9,72.2,69.1,61.8,58.6,87,50,29,29.77,29.63,13,3,19,0.35
2012-8-16,88.0,79.5,72.8,69.8,66.4,64.2,85,65,47,29.89,29.75,10,1,18,0.01
2012-8-17,91.3,75.7,70.0,69.9,67.9,64.4,93,78,45,29.90,29.82,9,2,12,0.48
2012-8-18,94.9,80.6,70.0,70.7,67.3,64.8,93,67,40,29.88,29.72,7,1,10,0.00
2012-8-19,100.7,82.8,69.2,76.9,68.3,60.2,88,65,33,29.79,29.62,20,2,24,0.40
2012-8-20,101.5,83.4,70.8,70.2,67.1,63.0,88,61,31,29.82,29.68,13,2,16,0.00
2012-8-21,97.3,82.5,71.2,71.6,68.9,64.4,93,66,38,29.81,29.66,13,2,17,0.08
2012-8-22,85.0,73.3,68.3,70.5,67.9,64.4,94,84,53,29.88,29.76,12,2,19,0.61
2012-8-23,93.4,79.3,69.2,72.9,68.6,64.7,94,73,42,29.87,29.73,9,1,9,0.01
2012-8-24,96.4,80.8,69.5,69.3,65.2,58.7,90,62,31,29.81,29.68,13,2,13,0.00
2012-8-25,98.2,83.3,68.8,66.4,62.6,57.5,83,54,29,29.76,29.64,7,1,9,0.00
2012-8-26,100.5,85.6,69.9,64.5,60.1,55.5,75,45,25,29.80,29.68,9,1,13,0.00
2012-8-27,105.0,87.4,75.8,65.3,60.6,52.7,65,43,22,29.81,29.68,16,2,20,0.00
2012-8-28,99.8,86.6,73.2,61.7,52.6,37.5,63,35,14,29.84,29.70,10,2,16,0.00
2012-8-29,102.8,86.5,67.2,65.7,50.1,39.4,64,32,14,29.81,29.63,10,2,12,0.00
2012-8-30,99.8,82.8,70.4,74.5,63.1,59.2,79,54,31,29.77,29.63,10,2,20,0.00
2012-8-31,100.6,82.7,68.5,64.6,61.4,56.8,78,51,28,29.82,29.70,12,2,18,0.00
2012-9-1,104.8,86.3,73.2,65.3,60.4,55.3,67,45,20,29.82,29.68,17,2,25,0.00
2012-9-2,103.9,85.5,75.8,65.4,61.6,57.5,62,46,25,29.81,29.68,12,2,21,0.00
2012-9-3,96.4,83.9,71.0,64.8,61.8,59.3,70,49,33,29.90,29.78,14,3,20,0.00
2012-9-4,90.8,80.6,73.9,64.0,62.2,59.1,66,54,40,29.95,29.80,16,3,20,0.00
2012-9-5,93.2,82.4,71.2,67.8,64.0,58.6,83,56,35,29.88,29.72,12,2,15,0.00
2012-9-6,96.0,77.3,71.0,69.4,66.1,59.8,90,70,39,29.86,29.73,22,2,25,0.18
2012-9-7,87.1,76.4,70.9,70.0,67.8,65.5,90,76,50,29.92,29.80,11,2,13,0.00
2012-9-8,91.5,79.2,71.5,70.0,64.9,58.2,90,64,39,29.88,29.77,10,2,12,0.00
2012-9-9,91.7,76.6,67.7,66.9,60.8,54.1,89,60,31,29.90,29.79,17,4,20,0.04
2012-9-10,95.2,73.3,66.9,66.2,62.8,57.2,89,72,30,29.92,29.78,18,3,22,0.05
2012-9-11,84.0,71.5,66.3,67.9,63.6,58.4,91,77,43,29.91,29.83,9,1,13,0.06
2012-9-12,89.3,75.3,66.1,67.3,63.5,60.2,93,70,40,29.94,29.82,14,1,24,0.00
2012-9-13,94.7,78.4,64.2,62.0,57.2,51.8,85,52,27,29.94,29.83,10,2,13,0.00
2012-9-14,88.2,76.4,65.0,54.0,48.7,38.7,62,39,25,29.98,29.90,11,1,16,0.00
2012-9-15,92.0,77.4,62.0,43.0,39.8,35.5,47,28,15,30.01,29.90,8,2,13,0.00
2012-9-16,96.2,77.0,59.2,46.9,41.0,37.0,56,31,13,30.00,29.87,11,2,19,0.00
2012-9-17,94.0,77.1,61.3,56.8,48.5,40.4,62,38,21,29.94,29.80,12,2,16,0.00
2012-9-18,98.7,80.0,61.7,55.5,50.0,47.0,65,38,19,29.92,29.81,9,2,14,0.00
2012-9-19,101.1,83.0,65.3,48.5,38.7,23.7,48,25,7,29.90,29.78,13,2,15,0.00
2012-9-20,101.0,83.7,70.8,46.2,38.5,31.9,34,22,9,29.86,29.74,8,2,11,0.00
2012-9-21,101.9,83.6,68.3,46.3,38.1,32.8,37,22,10,29.83,29.71,10,2,27,0.00
2012-9-22,104.9,85.4,71.2,43.3,37.7,24.0,33,20,6,29.84,29.75,15,2,18,0.00
2012-9-23,101.6,84.4,68.3,46.7,38.2,25.0,37,22,7,29.87,29.78,15,3,18,0.00
2012-9-24,97.8,81.9,65.6,47.7,40.6,34.5,41,25,12,29.88,29.73,13,2,16,0.00
2012-9-25,93.9,80.0,64.5,51.1,43.5,38.7,46,29,18,29.80,29.68,14,2,17,0.00
2012-9-26,94.0,76.5,64.0,53.8,45.1,36.0,57,35,14,29.80,29.70,13,2,17,0.00
2012-9-27,93.0,80.1,62.2,48.3,43.4,38.4,51,29,15,29.88,29.78,10,2,13,0.00
2012-9-28,90.1,75.5,67.6,52.7,47.6,42.0,54,39,22,29.85,29.74,14,2,16,0.00
2012-9-29,92.8,77.9,64.3,51.3,45.9,33.9,53,35,13,29.93,29.80,10,3,16,0.00
2012-9-30,95.6,76.9,62.2,48.9,40.5,26.6,54,32,9,29.90,29.77,11,2,15,0.00
2012-10-1,98.6,82.4,67.8,35.2,29.5,25.4,27,16,8,29.86,29.74,11,3,14,0.00
2012-10-2,98.8,81.3,65.5,38.5,31.0,24.6,30,18,8,29.83,29.72,12,2,14,0.00
2012-10-3,97.2,81.0,63.7,41.2,32.7,26.2,33,20,9,29.91,29.79,12,2,15,0.00
2012-10-4,94.9,79.5,63.3,41.5,37.1,32.4,36,24,12,29.97,29.86,12,3,20,0.00
2012-10-5,92.6,76.5,59.0,40.5,33.1,21.8,42,23,8,29.94,29.80,13,2,14,0.00
2012-10-6,89.3,74.5,59.5,39.2,32.0,21.9,41,23,9,29.86,29.75,14,2,19,0.00
2012-10-7,89.3,74.6,61.1,45.5,37.5,31.0,43,27,15,29.85,29.75,9,1,11,0.00
2012-10-8,90.8,74.4,57.9,41.4,36.9,32.8,49,28,13,29.89,29.78,11,2,14,0.00
2012-10-9,90.5,74.1,59.0,45.5,36.0,26.3,54,29,10,29.89,29.77,12,2,14,0.00
2012-10-10,88.7,74.3,57.2,42.9,37.8,32.6,50,28,14,29.92,29.75,20,2,20,0.00
2012-10-11,82.0,70.7,64.4,57.6,44.5,38.5,62,40,22,29.83,29.73,17,3,20,0.06
2012-10-12,73.2,63.4,53.8,49.2,43.4,35.7,70,50,30,30.04,29.79,13,4,17,0.00
2012-10-13,75.9,62.0,48.9,38.9,35.5,32.7,59,39,24,30.12,29.97,10,3,13,0.00
2012-10-14,89.8,72.2,55.4,39.9,35.1,27.9,51,29,13,30.04,29.88,9,3,12,0.00
2012-10-15,91.7,76.1,63.7,32.6,24.2,5.9,25,16,4,29.90,29.76,11,4,15,0.00
2012-10-16,89.6,71.6,56.0,33.2,27.4,22.7,35,21,9,29.83,29.70,8,2,12,0.00
2012-10-17,89.5,72.2,54.8,43.9,34.0,27.6,42,26,13,29.89,29.77,8,2,12,0.00
2012-10-18,85.3,71.7,59.8,60.9,49.7,33.7,78,48,31,29.97,29.85,9,2,12,0.00
2012-10-19,91.7,73.9,57.4,51.4,42.8,30.4,73,38,12,29.91,29.74,9,2,12,0.00
2012-10-20,87.9,73.9,58.9,47.0,39.2,30.9,45,30,18,29.80,29.68,11,2,16,0.00
2012-10-21,83.1,69.7,55.6,46.8,41.9,35.8,60,39,19,29.80,29.72,16,3,18,0.00
2012-10-22,83.3,67.9,54.7,50.2,43.7,37.1,77,46,20,29.88,29.79,14,2,14,0.00
2012-10-23,84.8,69.4,53.8,49.0,43.0,40.0,69,42,22,29.86,29.75,9,1,12,0.00
2012-10-24,81.7,67.9,54.4,46.8,37.8,20.6,66,36,20,29.91,29.77,12,2,13,0.00
2012-10-25,79.7,63.3,46.6,29.1,18.4,5.3,44,21,6,29.97,29.87,10,3,12,0.00
2012-10-26,83.8,66.6,55.5,19.8,16.3,12.9,21,15,8,29.98,29.83,13,5,15,0.00
2012-10-27,85.9,68.4,56.0,30.2,26.5,16.6,31,22,11,29.92,29.80,10,5,15,0.00
2012-10-28,89.0,68.1,58.0,31.4,28.9,26.4,34,25,11,29.97,29.85,12,5,17,0.00
2012-10-29,88.9,70.6,54.1,35.6,30.6,26.4,34,24,12,30.04,29.93,10,2,22,0.00
2012-10-30,88.2,69.3,52.0,36.0,29.8,23.6,44,25,12,30.00,29.88,9,2,12,0.00
2012-10-31,87.3,68.1,50.1,30.7,22.9,11.9,33,20,6,29.98,29.86,9,2,13,0.00
2012-11-1,86.9,69.3,52.3,27.1,24.1,20.5,30,19,9,29.94,29.80,8,2,15,0.00
2012-11-2,82.1,66.5,52.1,35.7,29.6,23.6,37,26,17,29.91,29.79,12,2,16,0.00
2012-11-3,82.5,66.8,52.3,40.8,33.3,29.2,43,30,18,29.99,29.90,9,2,12,0.00
2012-11-4,85.3,71.6,57.4,34.2,30.4,26.5,38,23,13,30.04,29.95,9,3,12,0.00
2012-11-5,88.6,71.5,60.7,26.9,22.0,17.2,22,16,9,30.05,29.92,11,4,13,0.00
2012-11-6,90.2,71.9,57.1,26.7,22.3,19.0,25,16,8,30.04,29.92,10,3,11,0.00
2012-11-7,89.4,71.4,54.6,28.5,25.5,20.8,29,19,10,29.99,29.82,8,2,13,0.00
2012-11-8,83.2,69.4,57.5,40.6,28.7,24.3,34,23,12,29.88,29.78,11,2,17,0.00
2012-11-9,75.0,65.6,56.5,54.5,47.1,42.5,92,53,38,29.84,29.67,20,7,28,0.27
2012-11-10,58.7,50.4,43.0,48.4,35.6,22.7,89,60,29,30.05,29.72,18,4,23,0.10
2012-11-11,56.2,45.3,32.7,30.0,22.0,13.5,80,44,19,30.32,30.07,11,3,13,0.00
2012-11-12,69.9,52.4,38.3,26.2,17.9,7.2,48,29,9,30.30,30.11,11,4,14,0.00
2012-11-13,74.6,57.6,45.0,18.0,14.8,12.3,28,19,10,30.15,30.01,14,5,15,0.00
2012-11-14,81.0,61.3,49.5,16.3,12.0,3.4,25,16,5,30.09,29.97,13,5,16,0.00
2012-11-15,75.3,62.7,48.5,28.4,20.5,15.0,32,20,12,30.07,29.99,7,3,13,0.00
2012-11-16,76.2,62.2,51.2,29.4,23.8,11.4,40,25,9,30.08,29.98,9,2,11,0.00
2012-11-17,76.6,63.4,51.2,39.0,31.8,22.4,42,31,23,30.07,29.97,9,2,10,0.00
2012-11-18,75.7,63.4,53.7,50.8,45.5,31.0,83,55,31,30.08,29.97,9,2,12,0.01
2012-11-19,75.7,62.6,49.9,44.5,41.9,36.6,75,51,26,30.17,30.07,9,2,10,0.00
2012-11-20,78.5,64.6,53.3,38.3,35.2,32.2,51,35,19,30.11,29.95,8,3,13,0.00
2012-11-21,80.4,65.7,53.0,40.1,34.8,28.8,48,33,20,29.99,29.90,5,2,13,0.00
2012-11-22,80.2,65.7,46.7,33.3,28.7,19.2,51,27,14,30.09,29.96,5,2,10,0.00
2012-11-23,84.8,67.7,52.6,33.3,27.9,19.9,35,23,14,30.14,30.03,10,4,13,0.00
2012-11-24,82.3,67.3,57.2,34.6,30.8,27.6,35,26,16,30.07,29.89,11,4,16,0.00
2012-11-25,80.0,64.4,50.7,35.9,28.1,19.8,41,27,11,29.91,29.79,10,3,12,0.00
2012-11-26,78.3,61.0,45.8,32.3,27.7,23.8,50,30,14,30.08,29.89,9,2,11,0.00
2012-11-27,81.0,63.4,49.8,31.9,26.9,24.9,38,26,14,30.14,30.01,10,4,12,0.00
2012-11-28,77.0,62.3,50.1,35.6,31.0,26.7,49,32,20,30.12,30.01,11,2,11,0.00
2012-11-29,74.8,58.6,45.9,38.8,33.5,29.0,58,41,21,30.16,30.07,10,2,14,0.00
2012-11-30,76.3,59.9,47.0,44.8,39.1,36.8,72,49,25,30.12,30.00,7,2,9,0.00
2012-12-1,75.7,58.7,44.8,39.6,36.0,29.8,72,46,21,30.09,29.99,9,2,9,0.00
2012-12-2,76.5,58.7,44.5,34.0,31.5,21.6,65,40,13,30.07,29.98,10,1,11,0.00
2012-12-3,73.3,57.9,45.0,38.7,35.8,32.1,65,46,26,30.14,30.01,8,2,9,0.00
2012-12-4,76.0,60.8,47.6,41.9,38.2,31.1,68,45,26,30.20,30.08,10,3,11,0.00
2012-12-5,80.8,63.6,52.1,31.9,29.5,24.0,42,30,14,30.11,29.91,13,3,13,0.00
2012-12-6,75.7,60.4,46.3,34.2,30.7,27.9,51,34,18,29.94,29.79,9,2,12,0.00
2012-12-7,73.1,57.8,44.9,36.5,33.6,30.3,62,42,23,29.91,29.82,7,2,10,0.00
2012-12-8,70.2,54.2,41.3,38.9,33.7,26.7,74,49,20,29.95,29.86,9,2,15,0.00
2012-12-9,67.8,52.5,39.0,33.5,25.6,14.6,69,40,15,30.11,29.94,10,3,16,0.00
2012-12-10,60.6,47.4,34.2,14.6,6.3,-1.4,28,19,8,30.12,30.00,15,5,16,0.00
2012-12-11,65.4,48.9,34.0,16.2,11.2,2.7,32,23,13,30.10,29.99,10,2,12,0.00
2012-12-12,70.5,53.4,37.9,25.5,17.6,9.2,35,25,14,30.06,29.92,10,3,14,0.00
2012-12-13,67.5,54.9,40.1,49.0,33.0,20.3,91,47,22,29.95,29.67,20,4,26,0.46
2012-12-14,52.3,46.0,39.7,49.0,40.2,35.1,93,81,57,30.04,29.66,19,5,24,0.35
2012-12-15,52.7,48.0,43.9,44.3,41.3,35.4,91,78,61,30.06,29.94,15,6,19,0.17
2012-12-16,55.6,46.3,37.0,44.2,37.1,30.4,94,73,41,30.19,30.01,10,1,11,0.21
2012-12-17,61.7,46.2,34.0,40.6,35.1,30.5,89,68,40,30.22,30.01,6,2,9,0.01
2012-12-18,65.9,52.0,38.8,44.0,38.9,33.7,83,63,37,30.01,29.74,14,3,19,0.00
2012-12-19,52.8,42.8,34.3,44.2,31.8,24.5,88,66,39,30.34,29.72,14,3,24,0.14
2012-12-20,63.9,45.1,32.8,28.7,22.5,16.2,80,45,16,30.37,30.17,11,5,14,0.00
2012-12-21,68.9,52.7,42.4,25.7,18.5,13.4,33,27,14,30.17,30.03,13,5,15,0.00
2012-12-22,69.4,55.2,44.0,38.9,30.1,20.8,73,40,24,30.11,30.01,12,4,18,0.00
2012-12-23,66.5,50.7,38.4,37.0,33.8,31.2,78,56,27,30.14,30.01,8,1,9,0.00
2012-12-24,59.4,51.0,42.6,41.0,35.9,32.4,71,57,41,30.06,29.87,15,2,16,0.00
2012-12-25,55.0,47.0,37.7,40.9,31.3,20.4,85,56,35,30.09,29.99,8,2,9,0.00
2012-12-26,62.9,48.1,37.3,28.7,23.6,10.5,68,42,13,30.02,29.84,12,3,14,0.00
2012-12-27,53.3,39.9,30.5,34.5,29.2,25.1,83,68,38,30.10,29.87,15,2,16,0.01
2012-12-28,53.7,41.2,29.4,33.9,27.1,19.0,88,61,26,30.21,30.09,9,2,10,0.00
2012-12-29,59.3,41.5,34.1,24.5,22.6,19.9,62,49,23,30.16,30.03,11,4,12,0.00
2012-12-30,57.1,44.3,37.0,36.0,27.4,21.6,91,55,27,29.99,29.81,12,2,24,0.22
2012-12-31,48.2,39.1,30.3,39.7,32.8,26.0,92,80,49,30.26,29.99,11,1,16,0.07
2013-1-1,50.6,39.1,28.0,28.1,25.2,21.3,92,60,32,30.30,30.15,9,3,11,0.00